Overview Statistics Trail Chart Weather Telemetry Raw packets
 

This is the latest recevied weather packets stored in our database for station/object KL4TQ. If no packets are shown the sender has not sent any weather packets the latest 10 day(s).

<< 68 69 70 71 72 73 74 >>
Time Temp. Humidity Pressure Rain* Wind** Luminosity Snow
1777221968 7.22° C 57% 857 hPa 0 mm - 274 W/m² -
1777221668 7.22° C 56% 857 hPa 0 mm - 267 W/m² -
1777221368 6.67° C 58% 857 hPa 0 mm - 278 W/m² -
1777221069 6.11° C 60% 857 hPa 0 mm - 253 W/m² -
1777220769 5.56° C 61% 857 hPa 0 mm - 200 W/m² -
1777220468 5.56° C 61% 857 hPa 0 mm - 171 W/m² -
1777220168 5.56° C 62% 857 hPa 0 mm - 115 W/m² -
1777219868 6.11° C 61% 857 hPa 0 mm - 78 W/m² -
1777219568 6.67° C 59% 857 hPa 0 mm - 80 W/m² -
1777219268 6.11° C 59% 857 hPa 0 mm - 129 W/m² -
1777218968 6.11° C 59% 857 hPa 0 mm - 168 W/m² -
1777218668 6.11° C 60% 857 hPa 0 mm - 177 W/m² -
1777218368 5.56° C 60% 857 hPa 0 mm - 175 W/m² -
1777218069 5.56° C 62% 857 hPa 0 mm - 172 W/m² -
1777217768 5° C 62% 857 hPa 0 mm - 165 W/m² -
1777217469 5° C 63% 857 hPa 0 mm - 153 W/m² -
1777217170 4.44° C 64% 857 hPa 0 mm - 137 W/m² -
1777216868 4.44° C 64% 857 hPa 0 mm - 120 W/m² -
1777216568 4.44° C 65% 857 hPa 0 mm - 103 W/m² -
1777216268 4.44° C 65% 857 hPa 0 mm - 94 W/m² -
1777215970 3.89° C 65% 857 hPa 0 mm - 88 W/m² -
1777215668 3.89° C 66% 857 hPa 0 mm - 54 W/m² -
1777215368 3.89° C 66% 857 hPa 0 mm - 52 W/m² -
1777215069 3.89° C 66% 857 hPa 0 mm - 46 W/m² -
1777214768 3.89° C 66% 857 hPa 0 mm - 41 W/m² -

* Rain latest hour (hover to see other rain measurements)
** Current wind speed in m/s (hover to see current wind gust speed)